Location: Antioch Baptist Church
(32.6696°N, 85.7327°W)
Time: 12:23:48
(UTC+00:00)

Hubble Space Telescope - Pass Details

Date: 14 July 2020
Orbit: 536 x 540 km, 28.5° (Epoch: 08 August)

Event Time Altitude Azimuth Distance (km) Brightness Sun altitude
Rises 03:19:43 0° 267° (W) 2,671 4.8 -25.1°
Reaches altitude 10° 03:22:07 10° 257° (WSW) 1,780 3.7 -25.4°
Enters shadow 03:23:25 18° 247° (WSW) 1,344 2.9 -25.6°
